Temp
59 57 58 57 57 55 56 57 56 56 53 54 52 51 49 47 46 45 44 44 43 43
58 57 57 57 57 56 57 58 56 55 53 51 52 49 48 46 46 45 44 43 43 41
58 59 58 56 54 56 53 55 53 52 52 50 49 47 46 44 44 44 42 43 41 40
59 59 58 57 56 52 54 52 53 51 49 49 47 46 45 44 44 43 42 41 41 41
58 54 56 54 51 55 51 50 50 49 48 48 47 45 45 45 44 43 42 41 41 41
53 53 50 52 51 48 48 47 48 48 47 47 46 45 44 44 44 42 41 41 40 40
48 50 47 47 47 47 46 46 45 46 46 47 46 46 45 44 42 41 41 42 41 41
46 46 46 46 45 46 46 45 45 45 45 44 45 48 44 44 42 40 40 41 42 43
47 46 45 45 44 44 43 42 42 42 42 41 47 53 55 52 41 42 41 40 44 42
46 45 44 44 43 41 40 39 39 39 40 39 40 52 54 54 45 41 40 40 38 39
44 43 42 41 40 39 38 38 38 38 39 38 41 51 52 53 39 38 38 38 38 39
43 42 41 40 39 39 38 37 38 38 38 36 36 48 51 48 38 38 37 39 40 41
43 42 40 39 38 38 37 38 39 38 35 42 34 43 47 47 39 35 36 37 39 45
42 41 40 38 37 36 36 35 34 35 33 34 36 35 46 47 41 39 41 38 37 41
MSLP
1015.69 1016.52 1017.16 1017.08 1017.57 1017.97 1018.12 1018.49 1018.91 1019.45 1019.96 1020.51 1020.65 1021.32 1021.51 1022.16 1022.44 1022.69 1023.10 1023.43 1023.65 1023.83
1015.99 1016.73 1016.91 1016.98 1017.40 1017.93 1018.23 1018.67 1019.25 1019.71 1020.18 1020.81 1021.17 1021.57 1021.70 1022.30 1022.54 1022.81 1023.13 1023.35 1023.54 1023.70
1016.09 1016.50 1016.61 1016.99 1017.77 1018.31 1018.76 1019.36 1020.06 1020.34 1020.89 1021.08 1021.72 1021.79 1022.05 1022.54 1022.78 1022.95 1023.20 1023.37 1023.57 1023.76
1016.26 1016.68 1017.18 1017.75 1018.33 1018.86 1019.41 1019.86 1020.42 1020.82 1021.27 1021.52 1021.79 1021.97 1022.29 1022.56 1022.83 1023.11 1023.31 1023.42 1023.51 1023.58
1016.94 1017.50 1017.95 1018.61 1019.17 1019.60 1019.95 1020.26 1020.60 1021.04 1021.39 1021.65 1021.83 1022.05 1022.25 1022.55 1022.85 1023.05 1023.19 1023.23 1023.29 1023.27
1018.20 1018.61 1019.15 1019.52 1019.83 1020.20 1020.49 1020.80 1021.07 1021.24 1021.50 1021.68 1021.83 1022.07 1022.35 1022.55 1022.69 1022.81 1022.88 1022.87 1022.95 1023.03
1019.07 1019.38 1019.80 1020.10 1020.44 1020.76 1021.02 1021.18 1021.30 1021.40 1021.53 1021.65 1021.81 1021.98 1022.11 1022.22 1022.27 1022.33 1022.42 1022.53 1022.62 1022.65
1019.81 1020.03 1020.34 1020.63 1020.86 1021.05 1021.19 1021.33 1021.47 1021.59 1021.69 1021.75 1021.71 1021.62 1021.60 1021.67 1021.82 1022.00 1022.14 1022.10 1022.05 1021.99
1020.26 1020.55 1020.84 1021.04 1021.22 1021.35 1021.50 1021.59 1021.68 1021.77 1021.81 1021.77 1021.56 1021.21 1021.32 1021.32 1021.43 1021.51 1021.67 1021.65 1021.55 1021.29
1020.60 1020.92 1021.17 1021.34 1021.51 1021.73 1021.86 1021.89 1021.95 1021.96 1021.92 1021.86 1021.65 1021.32 1021.13 1021.09 1020.98 1021.10 1021.20 1021.27 1020.93 1020.92
1020.98 1021.32 1021.52 1021.66 1021.83 1021.92 1022.01 1022.06 1022.06 1021.95 1021.86 1021.73 1021.48 1021.20 1020.84 1020.79 1020.86 1020.91 1020.85 1020.76 1020.65 1020.41
1021.32 1021.59 1021.78 1021.98 1022.01 1022.00 1022.04 1022.04 1021.96 1021.88 1021.88 1021.77 1021.44 1021.05 1020.69 1020.57 1020.61 1020.52 1020.40 1020.27 1020.12 1019.86
1021.47 1021.61 1021.83 1021.90 1022.03 1022.06 1022.07 1022.04 1022.04 1021.97 1021.95 1021.72 1021.50 1021.16 1020.83 1020.48 1020.19 1020.19 1020.06 1019.65 1019.41 1019.25
1021.61 1021.68 1021.79 1021.95 1022.06 1022.10 1022.12 1022.07 1022.06 1022.04 1022.09 1021.81 1021.45 1021.04 1020.54 1020.04 1019.62 1019.53 1019.27 1019.07 1018.99 1018.67
Wind_Speed
6 4 6 6 4 4 4 4 4 5 6 5 7 5 6 4 4 5 4 4 2 2
6 6 5 6 4 4 6 5 6 6 7 6 6 5 6 4 3 3 2 1 1 1
7 8 7 7 7 8 7 7 7 7 6 7 6 6 6 3 3 3 2 1 1 1
9 10 9 9 8 7 7 7 6 6 6 6 5 5 5 4 3 3 1 1 0 3
10 9 10 8 7 6 7 6 6 6 6 5 5 4 4 3 2 1 2 3 2 4
9 9 8 7 6 6 6 5 4 4 3 3 3 4 4 4 4 4 4 4 3 3
8 8 7 7 7 6 5 5 4 3 3 3 3 3 4 4 3 4 4 5 5 5
7 7 7 6 6 5 5 4 3 2 1 1 2 3 3 3 4 5 6 6 6 6
6 6 6 5 5 5 4 4 4 4 3 3 3 6 8 7 5 5 6 6 4 3
6 6 5 5 5 5 4 3 3 3 2 2 3 8 12 14 4 3 4 6 3 5
6 6 5 5 4 2 1 1 1 3 2 2 4 11 13 14 2 1 4 5 6 7
5 4 3 3 1 0 0 2 2 2 4 4 5 9 10 10 3 4 5 5 6 7
3 3 3 2 1 2 1 2 3 4 3 3 4 10 13 12 4 4 4 6 6 14
2 3 2 2 1 2 3 3 3 3 2 4 5 7 16 16 5 4 7 5 5 5
Wind_Direction
156 171 210 171 167 182 150 139 130 95 95 117 116 116 111 107 111 108 108 116 129 153
168 165 146 123 128 114 113 112 106 111 113 113 106 115 102 96 85 78 80 54 105 204
130 124 114 107 105 104 93 96 96 95 99 94 104 99 98 99 88 85 42 53 347 272
96 92 90 96 91 91 95 102 103 109 110 108 106 100 98 97 100 95 11 343 254 279
85 79 86 83 84 82 95 95 115 124 126 125 118 122 125 132 136 194 263 278 297 288
84 89 85 88 88 92 95 90 102 114 134 144 149 153 179 192 213 222 226 233 224 252
81 87 87 84 82 90 100 105 101 106 130 151 171 200 225 226 240 257 232 223 232 248
92 87 87 82 82 86 83 84 87 78 19 326 249 238 224 242 241 230 244 243 231 237
94 88 87 85 79 66 47 36 38 28 24 10 337 319 300 301 224 244 241 249 240 289
105 95 85 82 74 63 58 43 40 30 26 342 301 304 307 304 295 231 243 250 270 260
88 86 79 78 78 81 92 60 331 303 286 276 284 310 308 300 81 271 262 254 252 266
111 113 104 101 88 329 303 288 277 282 320 329 318 334 321 317 282 281 273 267 265 269
122 123 118 125 331 292 295 296 340 349 18 15 2 339 325 311 270 267 262 255 254 287
92 123 109 87 6 337 343 360 19 10 317 317 314 304 317 304 280 279 290 293 281 269